Погода в Комодоро-Ривадавии

Аргентина     45°50′23″S   67°29′14″W
темп.,
°C
ветер,
м/с
пор.,
м/с
влажн.,
%
обл.,
%
осадки,
мм/ч
давл.,
гПа
погр.,
м
21 июня, пн
пн2100:00+5сз444794 0.0 100837
03:00+5сз44475 0.0 100733
06:00+6сз444459 0.0 100537
09:00+6сз4443100 0.0 100338
12:00+10сз5738100 0.0 1002104
15:00+12сз61036100 0.0 999230
18:00+10зсз81846100 0.0 1001504
21:00+7з1522540 0.0 1005784
22 июня, вт
вт2200:00+6з915610 0.0 1009551
03:00+4зюз5872100 0.0 1012214
06:00+3зсз23725 0.0 101350
09:00+3сз336991 0.0 101532
12:00+5ссв2258100 0.0 1014173
15:00+6св3358100 0.1 1012318
18:00+4с3474100 0.4 1012278
21:00+3ю1090100 2.8 1011150
23 июня, ср
ср2300:00+3з1190100 0.2 100992
03:00+4ююз1190100 0.3 100570
06:00+4зюз2291100 0.0 100338
09:00+5сз3386100 0.0 100461
12:00+4з81380100 0.0 1005668
15:00+7з811565 0.0 1005692
18:00+6з610570 0.0 1006255
21:00+4зсз55625 0.0 100875
24 июня, чт
чт2400:00+4зсз46685 0.0 100890
03:00+4сз346593 0.0 100752
06:00+3с2266100 0.0 100434
09:00+5с3460100 0.0 1000115
12:00+7ссз91953100 0.0 997506
15:00+8с3652100 0.0 995182
18:00+8ссз510600 0.0 994198
21:00+8зсз1321560 0.0 993741
25 июня, пт
пт2500:00+7зсз1321510 0.0 994848
03:00+6з918490 0.0 995843
06:00+5з816450 0.0 995755
09:00+4зсз1522502 0.0 994784
12:00+7зсз1316456 0.0 994952
15:00+8з141744100 0.0 9931555
18:00+6з91453100 0.0 994928
21:00+5зюз111765100 0.0 996941